Tracking 20475 objects as of 27-Feb-2020
HD Live streaming from Space Station
objects crossing your sky now

GEOTAIL

Track GEOTAIL now!
GEOTAIL is classified as:


NORAD ID: 22049
Int'l Code: 1992-044A
Perigee: 48,072.8 km
Apogee: 192,827.5 km
Inclination: 21.2 °
Period: 7,491.1 minutes
Semi major axis: 126821 km
RCS: 3.5 m2 (large)
Launch date: July 24, 1992
Source: Japan (JPN)
Launch site: AIR FORCE EASTERN TEST RANGE (AFETR)

Study the dynamics of the Earth's magnetotail over a wide range of distance
aabbcc
Your satellite tracking list
Your tracking list is empty




NASA's NSSDC Master Catalog

Two Line Element Set (TLE):
1 22049U 92044A   19246.29061825 -.00001193 +00000-0 +00000-0 0  9996
2 22049 021.1686 055.4157 5707043 156.6492 358.6090 00.19222747011006
Source of the keplerian elements: AFSPC